Location: East Arcadia
(34.1056°N, 118.0176°W)
Time: 00:20:42
(UTC+00:00)

IRS-P3 - Pass Details

Date: 01 April 2023
Orbit: 813 x 817 km, 99.0° (Epoch: 08 June)

Event Time Altitude Azimuth Distance (km) Brightness Sun altitude
Rises 12:01:39 0° 14° (NNE) 3,345 7.8 -20.5°
Reaches altitude 10° 12:04:00 10° 15° (NNE) 2,410 7.0 -20.1°
Maximum altitude 12:09:20 84° 103° (ESE) 824 4.1 -19.0°
Drops below altitude 10° 12:14:40 10° 192° (SSW) 2,398 6.3 -18.0°
Enters shadow 12:15:08 - 193° (SSW) 2,585 6.4 -17.9°
